GW5496 Weather Reports


Display with metric or nautical units.
time (UTC)temp
F
wind
direction
speed
MPH
gust
MPH
rain 1hr
in
rain 24hr
in
rain mn
in
humidity
%
barometer
mb
20260506014413 59 15 6.0 10.0 0.00 0.00 0.00 56 1016.5
20260506013909 59 34 4.0 9.0 0.00 0.00 0.00 58 1016.5
20260506013408 59 56 8.0 10.0 0.00 0.00 0.00 55 1016.2
20260506012903 59 348 4.0 6.0 0.00 0.00 0.00 55 1016.6
20260506012400 58 332 2.0 6.0 0.00 0.00 0.00 60 1016.4
20260506011857 58 289 4.0 6.0 0.00 0.00 0.00 53 1016.5
20260506011354 58 319 6.0 8.0 0.00 0.00 0.00 60 1016.5
20260506010851 58 354 7.0 10.0 0.00 0.00 0.00 61 1016.5
20260506010350 58 281 3.0 9.0 0.00 0.00 0.00 58 1016.4
20260506005846 58 316 5.0 8.0 0.00 0.00 0.00 61 1016.4
20260506005343 59 333 7.0 11.0 0.00 0.00 0.00 58 1016.3
20260506004838 61 7 4.0 6.0 0.00 0.00 0.00 54 1016.3
20260506004337 62 36 4.0 4.0 0.00 0.00 0.00 54 1016.2
20260506003833 63 32 6.0 6.0 0.00 0.00 0.00 55 1016.1
20260506003329 63 107 3.0 5.0 0.00 0.00 0.00 49 1016.1
20260506002825 62 104 4.0 7.0 0.00 0.00 0.00 51 1015.9
20260506002322 63 103 6.0 11.0 0.00 0.00 0.00 50 1016.0
20260506001818 64 95 3.0 10.0 0.00 0.00 0.00 50 1016.0
20260506001315 64 140 4.0 9.0 0.00 0.00 0.00 51 1015.9
20260506000812 64 53 2.0 6.0 0.00 0.00 0.00 51 1015.8
20260506000310 63 57 2.0 4.0 0.00 0.00 0.00 51 1015.8
20260505235806 62 58 3.0 6.0 0.00 0.00 0.00 53 1015.8
20260505235305 62 38 3.0 6.0 0.00 0.00 0.00 56 1015.9
20260505234800 60 316 0.0 4.0 0.00 0.00 0.00 63 1015.9
20260505234258 60 7 3.0 5.0 0.00 0.00 0.00 63 1016.0
20260505233755 62 266 1.0 5.0 0.00 0.00 0.00 54 1015.8
20260505233253 63 4 3.0 12.0 0.00 0.00 0.00 59 1015.6
20260505232750 64 22 2.0 7.0 0.00 0.00 0.00 57 1015.6
20260505232247 64 52 3.0 9.0 0.00 0.00 0.00 55 1015.4
20260505231743 65 32 5.0 8.0 0.00 0.00 0.00 54 1015.4
20260505231242 65 96 4.0 6.0 0.00 0.00 0.00 50 1015.5
20260505230740 65 83 2.0 6.0 0.00 0.00 0.00 51 1015.7
20260505230237 64 54 2.0 8.0 0.00 0.00 0.00 51 1015.6
20260505225733 65 257 0.0 6.0 0.00 0.00 0.00 52 1015.3
20260505225231 65 26 3.0 7.0 0.00 0.00 0.00 53 1015.6
20260505224725 65 36 4.0 7.0 0.00 0.00 0.00 53 1015.5
20260505224224 65 72 5.0 8.0 0.00 0.00 0.00 55 1015.5
20260505223721 65 36 2.0 4.0 0.00 0.00 0.00 52 1015.3
20260505223217 64 154 1.0 5.0 0.00 0.00 0.00 51 1015.5
20260505222713 65 120 2.0 6.0 0.00 0.00 0.00 58 1015.5
20260505222209 65 33 1.0 5.0 0.00 0.00 0.00 51 1015.6
20260505221707 65 85 0.0 7.0 0.00 0.00 0.00 53 1015.4
20260505221203 65 103 6.0 10.0 0.00 0.00 0.00 50 1015.4
20260505220700 65 21 4.0 6.0 0.00 0.00 0.00 54 1015.3
20260505220158 65 49 4.0 8.0 0.00 0.00 0.00 50 1015.3
20260505215655 64 114 2.0 12.0 0.00 0.00 0.00 52 1015.4
20260505215153 64 119 8.0 9.0 0.00 0.00 0.00 52 1015.3
20260505214651 63 50 4.0 9.0 0.00 0.00 0.00 56 1015.2
20260505214148 63 83 3.0 6.0 0.00 0.00 0.00 52 1015.2
20260505213645 62 105 7.0 7.0 0.00 0.00 0.00 52 1015.1
20260505213142 63 70 5.0 8.0 0.00 0.00 0.00 53 1014.9
20260505212638 64 352 4.0 6.0 0.00 0.00 0.00 57 1014.9
20260505212136 65 34 4.0 6.0 0.00 0.00 0.00 55 1014.9
20260505211632 65 40 4.0 7.0 0.00 0.00 0.00 56 1014.7
20260505211130 65 106 3.0 8.0 0.00 0.00 0.00 53 1014.9
20260505210626 65 122 2.0 9.0 0.00 0.00 0.00 56 1014.8
20260505210123 64 57 4.0 6.0 0.00 0.00 0.00 57 1014.8
20260505205621 64 77 4.0 8.0 0.00 0.00 0.00 56 1014.5
20260505205119 65 25 7.0 9.0 0.00 0.00 0.00 55 1014.5
20260505204615 64 81 3.0 8.0 0.00 0.00 0.00 54 1014.7
20260505204113 63 78 3.0 5.0 0.00 0.00 0.00 57 1014.6
20260505203609 62 61 2.0 10.0 0.00 0.00 0.00 56 1014.4
20260505203107 62 72 2.0 13.0 0.00 0.00 0.00 57 1014.5
20260505202602 62 72 2.0 6.0 0.00 0.00 0.00 58 1014.4
20260505202058 62 45 4.0 6.0 0.00 0.00 0.00 58 1014.4
20260505201555 62 74 6.0 7.0 0.00 0.00 0.00 56 1014.6
20260505201053 61 66 3.0 6.0 0.00 0.00 0.00 58 1014.3
20260505200550 61 45 6.0 8.0 0.00 0.00 0.00 62 1014.1
20260505200047 60 12 4.0 7.0 0.00 0.00 0.00 61 1014.1
20260505195543 60 15 2.0 6.0 0.00 0.00 0.00 59 1014.1
20260505195041 60 79 7.0 8.0 0.00 0.00 0.00 63 1014.3
20260505194538 60 44 5.0 6.0 0.00 0.00 0.00 64 1014.3
20260505194033 58 81 5.0 9.0 0.00 0.00 0.00 67 1014.1
20260505193531 58 61 4.0 7.0 0.00 0.00 0.00 67 1014.2
20260505193028 58 32 6.0 8.0 0.00 0.00 0.00 68 1014.1
20260505192526 59 32 2.0 8.0 0.00 0.00 0.00 68 1014.1
20260505192024 58 29 6.0 8.0 0.00 0.00 0.00 66 1014.0
20260505191522 58 35 5.0 8.0 0.00 0.00 0.00 67 1014.2
20260505191020 58 56 4.0 8.0 0.00 0.00 0.00 68 1014.2
20260505190514 58 18 2.0 6.0 0.00 0.00 0.00 68 1014.3
20260505190010 57 37 4.0 6.0 0.00 0.00 0.00 72 1014.1
20260505185507 57 60 3.0 6.0 0.00 0.00 0.00 74 1014.3
20260505185003 58 43 6.0 8.0 0.00 0.00 0.00 73 1014.1
20260505184500 58 31 4.0 6.0 0.00 0.00 0.00 71 1014.1
20260505183957 58 35 4.0 7.0 0.00 0.00 0.00 72 1013.9
20260505183454 57 9 4.0 9.0 0.00 0.00 0.00 73 1013.9
20260505182950 56 65 2.0 6.0 0.00 0.00 0.00 72 1014.0
20260505182448 56 39 6.0 6.0 0.00 0.00 0.00 76 1014.1
20260505181944 57 48 6.0 7.0 0.00 0.00 0.00 75 1014.2
20260505181441 57 48 4.0 7.0 0.00 0.00 0.00 72 1013.9
20260505180938 57 5 4.0 7.0 0.00 0.00 0.00 74 1014.0
20260505180434 56 23 4.0 6.0 0.00 0.00 0.00 77 1014.0
20260505175931 56 65 4.0 6.0 0.00 0.00 0.00 77 1014.0
20260505175427 55 84 2.0 5.0 0.00 0.00 0.00 77 1013.8
20260505174924 55 42 6.0 7.0 0.00 0.00 0.00 81 1013.8
20260505174422 54 59 4.0 6.0 0.00 0.00 0.00 83 1013.9
20260505173917 55 22 2.0 6.0 0.00 0.00 0.00 82 1013.7
20260505173414 54 40 4.0 5.0 0.00 0.00 0.00 79 1013.6
20260505172911 54 36 3.0 6.0 0.00 0.00 0.00 81 1013.7
20260505172409 54 84 4.0 5.0 0.00 0.00 0.00 80 1013.7
20260505171908 54 96 5.0 5.0 0.00 0.00 0.00 80 1013.7
20260505171406 54 39 2.0 4.0 0.00 0.00 0.00 82 1013.5
20260505170902 53 46 2.0 7.0 0.00 0.00 0.00 84 1013.5
20260505170359 52 126 2.0 3.0 0.00 0.00 0.00 87 1013.7
20260505165854 52 56 2.0 4.0 0.00 0.00 0.00 87 1013.6
20260505165350 52 131 3.0 3.0 0.00 0.00 0.00 88 1013.5
20260505164846 52 120 3.0 4.0 0.00 0.00 0.00 85 1013.5
20260505164342 53 111 3.0 3.0 0.00 0.00 0.00 87 1013.5
20260505163841 53 100 4.0 4.0 0.00 0.00 0.00 87 1013.5
20260505163339 52 65 3.0 4.0 0.00 0.00 0.00 87 1013.6
20260505162838 51 86 4.0 5.0 0.00 0.00 0.00 89 1013.3
20260505162333 50 38 2.0 4.0 0.00 0.00 0.00 91 1013.4
20260505161831 50 114 2.0 3.0 0.00 0.00 0.00 92 1013.6
20260505161328 49 95 2.0 4.0 0.00 0.00 0.00 91 1013.3
20260505160825 49 91 3.0 3.0 0.00 0.00 0.00 92 1013.0
20260505160323 49 97 3.0 3.0 0.00 0.00 0.00 93 1012.9
20260505153302 47 83 3.0 4.0 0.00 0.00 0.00 97 1012.9
20260505152759 47 99 3.0 4.0 0.00 0.00 0.00 97 1012.9
20260505152256 47 103 4.0 4.0 0.00 0.00 0.00 97 1012.9
20260505151755 47 99 4.0 5.0 0.00 0.00 0.00 97 1012.9
20260505151253 47 95 4.0 4.0 0.00 0.00 0.00 97 1012.9
20260505150750 47 115 4.0 5.0 0.00 0.00 0.00 98 1012.8
20260505150247 47 114 4.0 5.0 0.00 0.00 0.00 98 1012.9
20260505140217 44 108 3.0 4.0 0.00 0.00 0.00 98 1012.5
20260505130141 44 95 4.0 5.0 0.00 0.00 0.00 98 1011.8
20260505124630 44 96 4.0 5.0 0.00 0.00 0.00 98 1011.6
20260505124127 44 112 4.0 4.0 0.00 0.00 0.00 98 1011.4
20260505123623 44 77 5.0 5.0 0.00 0.00 0.00 98 1011.6
20260505123120 44 94 3.0 4.0 0.00 0.00 0.00 98 1011.6
20260505122617 44 91 4.0 5.0 0.00 0.00 0.00 98 1011.5
20260505122114 44 76 3.0 5.0 0.00 0.00 0.00 98 1011.5
20260505121610 44 92 3.0 4.0 0.00 0.00 0.00 98 1011.6
20260505121107 44 114 4.0 4.0 0.00 0.00 0.00 98 1011.7
20260505120603 44 94 5.0 5.0 0.00 0.00 0.00 98 1011.6
20260505120059 44 96 4.0 5.0 0.00 0.00 0.00 98 1011.6
20260505115554 44 104 3.0 3.0 0.00 0.00 0.00 97 1011.8
20260505115051 44 104 3.0 4.0 0.00 0.00 0.00 97 1011.6
20260505114548 44 81 4.0 4.0 0.00 0.00 0.00 98 1011.7
20260505114044 44 91 3.0 4.0 0.00 0.00 0.00 97 1012.0
20260505113541 44 91 4.0 4.0 0.00 0.00 0.00 97 1011.9
20260505113038 44 95 4.0 4.0 0.00 0.00 0.00 97 1011.9
20260505112534 44 93 4.0 4.0 0.00 0.00 0.00 97 1011.8
20260505112033 44 89 4.0 5.0 0.00 0.00 0.00 97 1012.0
20260505111531 44 87 4.0 4.0 0.00 0.00 0.00 97 1011.9
20260505111028 44 93 4.0 4.0 0.00 0.00 0.00 97 1012.0
20260505110525 44 87 4.0 5.0 0.00 0.00 0.00 97 1011.9
20260505101957 44 77 3.0 4.0 0.00 0.00 0.00 97 1012.1
20260505101455 44 87 4.0 5.0 0.00 0.00 0.00 97 1012.2
20260505100951 44 89 3.0 4.0 0.00 0.00 0.00 97 1012.1
20260505100449 44 94 4.0 5.0 0.00 0.00 0.00 97 1012.3
20260505095945 45 87 4.0 5.0 0.00 0.00 0.00 96 1012.4
20260505095442 45 122 3.0 4.0 0.00 0.00 0.00 96 1012.4
20260505094938 45 94 4.0 5.0 0.00 0.00 0.00 96 1012.3
20260505094435 45 95 4.0 4.0 0.00 0.00 0.00 96 1012.2
20260505093931 45 115 4.0 4.0 0.00 0.00 0.00 96 1012.3
20260505093427 45 92 4.0 4.0 0.00 0.00 0.00 96 1012.3
20260505092925 45 79 5.0 6.0 0.00 0.00 0.00 96 1012.3
20260505092423 45 86 3.0 4.0 0.00 0.00 0.00 96 1012.2
20260505091920 45 81 3.0 4.0 0.00 0.00 0.00 96 1012.1
20260505091417 46 79 3.0 4.0 0.00 0.00 0.00 96 1012.3
20260505090915 46 81 4.0 5.0 0.00 0.00 0.00 96 1012.2
20260505090413 46 82 4.0 4.0 0.00 0.00 0.00 96 1012.4
20260505085910 46 86 4.0 5.0 0.00 0.00 0.00 96 1012.2
20260505085408 46 76 3.0 5.0 0.00 0.00 0.00 96 1012.3
20260505084906 46 72 5.0 5.0 0.00 0.00 0.00 96 1012.4
20260505084404 46 70 5.0 5.0 0.00 0.00 0.00 96 1012.3
20260505083901 46 78 4.0 5.0 0.00 0.00 0.00 96 1012.4
20260505083359 46 83 4.0 5.0 0.00 0.00 0.00 95 1012.4
20260505082855 46 106 3.0 4.0 0.00 0.00 0.00 95 1012.4
20260505082351 47 83 4.0 5.0 0.00 0.00 0.00 95 1012.5
20260505081848 47 91 5.0 5.0 0.00 0.00 0.00 95 1012.2
20260505081344 47 95 4.0 5.0 0.00 0.00 0.00 95 1012.4
20260505080841 47 85 4.0 5.0 0.00 0.00 0.00 95 1012.4
20260505080337 47 115 4.0 4.0 0.00 0.00 0.00 95 1012.4
20260505075833 47 89 3.0 4.0 0.00 0.00 0.00 95 1012.3
20260505075330 47 92 4.0 4.0 0.00 0.00 0.00 95 1012.4
20260505074827 47 80 4.0 4.0 0.00 0.00 0.00 95 1012.3
20260505074324 47 76 4.0 4.0 0.00 0.00 0.00 94 1012.4
20260505073822 47 122 3.0 4.0 0.00 0.00 0.00 94 1012.1
20260505073320 47 100 3.0 5.0 0.00 0.00 0.00 94 1012.2
20260505072816 47 100 4.0 4.0 0.00 0.00 0.00 94 1012.3
20260505072312 47 108 3.0 4.0 0.00 0.00 0.00 94 1012.1
20260505071808 48 87 3.0 5.0 0.00 0.00 0.00 93 1012.3
20260505071305 48 79 4.0 4.0 0.00 0.00 0.00 93 1012.4
20260505070803 48 73 4.0 4.0 0.00 0.00 0.00 93 1012.3
20260505070259 48 77 3.0 5.0 0.00 0.00 0.00 93 1012.4
20260505065754 48 80 4.0 5.0 0.00 0.00 0.00 93 1012.4
20260505065252 48 88 4.0 4.0 0.00 0.00 0.00 93 1012.5
20260505064749 49 78 4.0 5.0 0.00 0.00 0.00 92 1012.3
20260505064246 49 86 4.0 5.0 0.00 0.00 0.00 92 1012.4
20260505063744 49 94 3.0 5.0 0.00 0.00 0.00 92 1012.5
20260505063240 49 96 3.0 5.0 0.00 0.00 0.00 92 1012.5
20260505062736 49 89 3.0 4.0 0.00 0.00 0.00 91 1012.6
20260505062234 49 83 3.0 4.0 0.00 0.00 0.00 91 1012.4
20260505061731 50 104 4.0 5.0 0.00 0.00 0.00 92 1012.5
20260505061229 50 70 3.0 4.0 0.00 0.00 0.00 91 1012.5
20260505060726 50 72 3.0 4.0 0.00 0.00 0.00 91 1012.7
20260505060223 50 79 4.0 5.0 0.00 0.00 0.00 91 1012.7
20260505055718 50 69 4.0 5.0 0.00 0.00 0.00 91 1012.7
20260505055215 51 81 3.0 5.0 0.00 0.00 0.00 90 1012.6
20260505054712 51 89 3.0 4.0 0.00 0.00 0.00 90 1012.6
20260505054210 51 130 3.0 4.0 0.00 0.00 0.00 89 1012.5
20260505053708 51 108 3.0 5.0 0.00 0.00 0.00 89 1012.5
20260505053204 52 88 3.0 3.0 0.00 0.00 0.00 89 1012.5
20260505052701 52 95 4.0 4.0 0.00 0.00 0.00 89 1012.4
20260505052158 52 89 4.0 5.0 0.00 0.00 0.00 89 1012.3
20260505051655 52 81 4.0 4.0 0.00 0.00 0.00 88 1012.5
20260505051153 52 77 3.0 4.0 0.00 0.00 0.00 88 1012.5
20260505050651 53 135 3.0 4.0 0.00 0.00 0.00 88 1012.4
20260505050149 53 96 4.0 4.0 0.00 0.00 0.00 87 1012.6
20260505041618 57 93 2.0 3.0 0.00 0.00 0.00 77 1012.5
20260505041115 58 111 3.0 4.0 0.00 0.00 0.00 75 1012.6
20260505040613 59 88 3.0 4.0 0.00 0.00 0.00 75 1012.6
20260505040110 60 88 3.0 3.0 0.00 0.00 0.00 72 1012.6
20260505035606 61 88 3.0 4.0 0.00 0.00 0.00 70 1012.9
20260505035102 61 87 3.0 5.0 0.00 0.00 0.00 69 1012.8
20260505034559 61 85 3.0 4.0 0.00 0.00 0.00 69 1012.6
20260505034056 62 84 2.0 4.0 0.00 0.00 0.00 68 1012.7
20260505033553 62 127 3.0 4.0 0.00 0.00 0.00 66 1012.8
20260505033051 62 112 2.0 4.0 0.00 0.00 0.00 67 1012.6
20260505032549 63 114 2.0 4.0 0.00 0.00 0.00 62 1012.9
20260505032045 64 84 3.0 3.0 0.00 0.00 0.00 60 1012.6
20260505031542 65 83 3.0 4.0 0.00 0.00 0.00 56 1012.8
20260505031038 66 77 2.0 3.0 0.00 0.00 0.00 52 1012.8
20260505030536 67 124 2.0 2.0 0.00 0.00 0.00 53 1012.9
20260505030032 66 70 2.0 2.0 0.00 0.00 0.00 54 1013.0
20260505025527 65 73 2.0 3.0 0.00 0.00 0.00 55 1013.1
20260505025027 64 112 2.0 2.0 0.00 0.00 0.00 57 1013.2
20260505024523 65 107 2.0 2.0 0.00 0.00 0.00 58 1013.1
20260505024020 67 99 2.0 3.0 0.00 0.00 0.00 52 1013.1
20260505023517 67 105 1.0 2.0 0.00 0.00 0.00 53 1013.1
20260505023015 68 158 1.0 2.0 0.00 0.00 0.00 51 1013.2
20260505022513 68 153 0.0 2.0 0.00 0.00 0.00 50 1013.3
20260505022010 68 89 1.0 2.0 0.00 0.00 0.00 54 1013.2
20260505021506 66 124 2.0 2.0 0.00 0.00 0.00 57 1013.6
20260505021002 66 138 2.0 2.0 0.00 0.00 0.00 57 1013.3
20260505020457 66 83 1.0 4.0 0.00 0.00 0.00 55 1013.2
20260505015954 66 117 1.0 2.0 0.00 0.00 0.00 55 1013.3
20260505015451 67 99 2.0 2.0 0.00 0.00 0.00 54 1013.4
20260505014948 67 68 1.0 3.0 0.00 0.00 0.00 54 1013.5
20260505014445 67 56 2.0 3.0 0.00 0.00 0.00 54 1013.4